Nashua, NH

5:05 PM EDT on May 29, 2017 (GMT -0400)
Boire

Weather History for KASH - January, 2013

Change the Weather History Date:

Wednesday, January 23, 2013

  Actual Average Record
Temperature  
Mean Temperature 8 °F -  
Max Temperature 13 °F 37 °F 55 °F (1957)
Min Temperature 3 °F 13 °F -19 °F (1970)
Degree Days  
Heating Degree Days 57    
Moisture  
Dew Point -13 °F    
Average Humidity 39    
Maximum Humidity 56    
Minimum Humidity 26    
Precipitation  
Precipitation 0.00 in - - ()
Sea Level Pressure  
Sea Level Pressure 30.89 in    
Wind  
Wind Speed 7 mph (WNW)    
Max Wind Speed 18 mph    
Max Gust Speed 30 mph    
Visibility 10 miles    
Events      
Averages and records for this station are not official NWS values.
T = Trace of Precipitation, MM = Missing Value Source: NWS Daily Summary

Daily Weather History Graph

Daily Weather History Graph

Search for Another Location

Airport or City:

Trip Planner

Search our weather history database for the weather conditions in past years. The results will help you decide how hot, cold, wet, or windy it might be!

Date:

Astronomy

Jan. 23, 2013 Rise Set
Actual Time 7:08 AM EST 4:47 PM EST
Civil Twilight 6:37 AM EST 5:18 PM EST
Nautical Twilight 6:03 AM EST 5:52 PM EST
Astronomical Twilight 5:30 AM EST 6:26 PM EST
Moon 1:54 PM EST (1/23) 4:18 AM EST (1/23)
Length of Visible Light 10h 40m
Length of Day
9h 39m
Waxing Gibbous, 89% of the Moon is Illuminated
Jan 23
Waxing Gibbous
Jan 26
Full
Feb 3
Last Quarter
Feb 10
New
Feb 17
First Quarter

Hourly Weather History & Observations

Time (EST) Temp. Windchill Dew Point Humidity Pressure Visibility Wind Dir Wind Speed Gust Speed Precip Events Conditions
12:51 AM 10.0 °F 1.8 °F -6.9 °F 46% 30.84 in 10.0 mi WNW 4.6 mph - N/A   Clear
1:51 AM 9.1 °F 0.8 °F -8.0 °F 46% 30.84 in 10.0 mi West 4.6 mph - N/A   Clear
2:51 AM 9.1 °F -3.0 °F -8.0 °F 46% 30.85 in 10.0 mi West 8.1 mph - N/A   Clear
3:51 AM 8.1 °F -0.5 °F -4.9 °F 56% 30.86 in 10.0 mi Variable 4.6 mph - N/A   Clear
4:51 AM 8.1 °F -3.2 °F -13.0 °F 38% 30.87 in 10.0 mi Variable 6.9 mph - N/A   Clear
5:51 AM 7.2 °F -5.4 °F -13.9 °F 38% 30.88 in 10.0 mi WNW 8.1 mph - N/A   Clear
6:51 AM 7.2 °F -7.3 °F -15.0 °F 36% 30.90 in 10.0 mi West 10.4 mph - N/A   Clear
7:51 AM 6.1 °F -4.3 °F -11.9 °F 44% 30.91 in 10.0 mi West 5.8 mph - N/A   Clear
8:51 AM 7.2 °F -6.4 °F -13.9 °F 38% 30.92 in 10.0 mi NW 9.2 mph - N/A   Clear
9:51 AM 9.1 °F -8.2 °F -15.0 °F 33% 30.92 in 10.0 mi WNW 16.1 mph 24.2 mph N/A   Clear
10:51 AM 11.1 °F -5.7 °F -13.0 °F 33% 30.90 in 10.0 mi NW 16.1 mph 28.8 mph N/A   Clear
11:51 AM 12.0 °F -5.6 °F -15.0 °F 29% 30.88 in 10.0 mi WNW 18.4 mph 29.9 mph N/A   Clear
12:51 PM 13.1 °F -1.4 °F -15.9 °F 26% 30.86 in 10.0 mi West 12.7 mph 19.6 mph N/A   Clear
1:51 PM 13.1 °F -2.6 °F -15.9 °F 26% 30.85 in 10.0 mi NNW 15.0 mph 19.6 mph N/A   Clear
4:51 PM 11.1 °F -3.2 °F -13.9 °F 32% 30.88 in 10.0 mi NNW 11.5 mph - N/A   Clear
5:51 PM 9.1 °F 0.8 °F -15.9 °F 31% 30.90 in 10.0 mi North 4.6 mph - N/A   Clear
6:51 PM 7.2 °F - -13.0 °F 39% 30.92 in 10.0 mi Calm Calm - N/A   Clear
7:51 PM 6.1 °F -2.8 °F -13.9 °F 40% 30.93 in 10.0 mi WNW 4.6 mph - N/A   Clear
8:51 PM 4.1 °F - -13.9 °F 43% 30.93 in 10.0 mi Calm Calm - N/A   Clear
9:51 PM 4.1 °F -3.2 °F -13.9 °F 43% 30.93 in 10.0 mi West 3.5 mph - N/A   Clear
10:51 PM 3.0 °F -6.4 °F -11.9 °F 50% 30.93 in 10.0 mi WNW 4.6 mph - N/A   Clear
11:51 PM 3.0 °F -11.5 °F -15.0 °F 43% 30.92 in 10.0 mi WNW 9.2 mph - N/A   Clear